Renton, WA
on Wednesday, January 9, 2013

Wednesday
Previous Day Next Day
Daily Summary
 ActualAverage (KSEA)Record (KSEA)
Temperature
Mean Temperature °F 42°F  
Max Temperature 51°F 46°F 56°F (2003)
Min Temperature 35°F 37°F 13°F (1949)
Degree Days
Heating Degree Days 22 23  
Month to date heating degree days 215  
Since 1 July heating degree days 2153  
Cooling Degree Days 0 0  
Month to date cooling degree days 0  
Year to date cooling degree days 0  
Moisture
Dew Point 37°F   
Average Humidity 87    
Maximum Humidity 100    
Minimum Humidity 76    
Precipitation
Precipitation 1.11 in 0.19 in 2.83 in (1990)
Month to date precipitation 1.69  
Year to date precipitation 1.69  
Snow
Snow 0.00 in in 2.00 in (1963)
Month to date snowfall  
Since 1 July snowfall  
Snow Depth in   
Wind
Wind Speed 7 mph   
Max Wind Speed 12 mph   
Max Gust Speed 22 mph   
Visibility 8 miles   
Events Rain   

Key: T is trace of precipitation, MM is missing value
Source: NWS Daily Summary
Time(PST)TemperatureDew PointHumidity Pressure Visibility Wind DirectionWind SpeedGust SpeedPrecipitationEvents Conditions
12:53 AM 51.1°F 46.9°F 86% 29.76 in 5.0 miles SSW 9.2 mph - 0.05 in Rain Rain
1:53 AM 51.1°F 46.0°F 83% 29.76 in 8.0 miles South 11.5 mph 21.9 mph 0.10 in Rain Light Rain
2:53 AM 46.0°F 45.0°F 96% 29.76 in 4.0 miles SW 6.9 mph 16.1 mph 0.15 in Rain Rain
3:46 AM 44.6°F - N/A% 29.72 in 5.0 miles East 3.5 mph - 0.12 in Rain Light Rain
3:53 AM 45.0°F - N/A% 29.73 in 8.0 miles ESE 5.8 mph - 0.13 in Rain Light Rain
4:53 AM 44.1°F - N/A% 29.71 in 8.0 miles SSE 5.8 mph - 0.04 in Rain Light Rain
5:53 AM 43.0°F - N/A% 29.70 in 8.0 miles SE 5.8 mph - 0.13 in Rain Light Rain
6:21 AM 42.8°F - N/A% 29.70 in 4.0 miles SSE 6.9 mph - 0.10 in Rain Rain
6:34 AM 42.8°F - N/A% 29.70 in 4.0 miles South 6.9 mph - 0.14 in Rain Rain
6:53 AM 42.1°F 39.9°F 92% 29.73 in 4.0 miles South 6.9 mph - 0.19 in Rain Rain
7:53 AM 39.9°F 37.9°F 93% 29.76 in 6.0 miles SSE 4.6 mph - 0.14 in Rain Rain
8:53 AM 36.0°F 35.1°F 97% 29.78 in 6.0 miles East 6.9 mph - 0.08 in Rain Light Rain
9:15 AM 35.6°F 35.6°F 100% 29.78 in 9.0 miles SSE 3.5 mph - 0.03 in Rain Light Rain
9:53 AM 35.1°F 34.0°F 96% 29.79 in 6.0 miles ESE 5.8 mph - 0.07 in Rain Light Rain
10:53 AM 36.0°F 35.1°F 97% 29.81 in 10.0 miles Variable 5.8 mph 16.1 mph 0.03 in   Overcast
11:53 AM 37.9°F 36.0°F 93% 29.80 in 10.0 miles East 8.1 mph - N/A   Overcast
12:53 PM 39.9°F 37.9°F 93% 29.79 in 10.0 miles ESE 4.6 mph - N/A   Overcast
1:10 PM 42.8°F 39.2°F 87% 29.78 in 10.0 miles SSE 8.1 mph - N/A   Overcast
1:53 PM 43.0°F 37.9°F 82% 29.81 in 10.0 miles SSE 9.2 mph - N/A   Overcast
2:53 PM 43.0°F 37.9°F 82% 29.83 in 10.0 miles SE 9.2 mph - N/A   Overcast
3:53 PM 43.0°F 37.9°F 82% 29.86 in 10.0 miles SE 5.8 mph - N/A   Overcast
4:53 PM 42.8°F 35.6°F 76% 29.86 in 10.0 miles SSE 8.1 mph - N/A   Overcast
5:53 PM 41.0°F 36.0°F 82% 29.90 in 10.0 miles Variable 4.6 mph - N/A   Overcast
6:53 PM 41.0°F 35.1°F 79% 29.91 in 10.0 miles SSE 4.6 mph - N/A   Overcast
7:53 PM 39.9°F 35.1°F 83% 29.94 in 10.0 miles SE 4.6 mph - N/A   Overcast
8:53 PM 39.9°F 34.0°F 79% 29.95 in 10.0 miles SSE 4.6 mph - N/A   Overcast
9:22 PM 39.2°F 33.8°F 81% 29.94 in 10.0 miles SSE 6.9 mph - N/A   Overcast
9:50 PM 39.2°F 33.8°F 81% 29.94 in 10.0 miles SE 4.6 mph - N/A   Overcast
9:53 PM 39.0°F 34.0°F 82% 29.96 in 10.0 miles SSE 4.6 mph - N/A   Mostly Cloudy
10:53 PM 39.0°F 34.0°F 82% 29.97 in 10.0 miles SSE 5.8 mph - N/A   Overcast
11:53 PM 39.0°F 34.0°F 82% 29.97 in 10.0 miles SE 4.6 mph - N/A   Overcast
Moon Phase
Jan. 09 Jan. 11 Jan. 18 Jan. 26 Feb. 03
Sunrise:07:54 AM (PST) Moon Rise:05:40 AM (PST)1/9
Sunset:04:37 PM (PST) Moon Set:02:44 PM (PST)1/9

Copyright © 2014 The Weather Underground, Inc.